Skip Page Navigation
NASA JPL Caltech
NASA Logo - Jet Propulsion Laboratory + View the NASA Portal
+ Center for Near-Earth Object Studies
JPL Home Earth Solar System Stars & Galaxies Technology
JPL Solar System Dynamics
BODIES ORBITS EPHEMERIDES TOOLS PHYSICAL DATA DISCOVERY FAQ SITE MAP
IMPORTANT: The SSD Announcement email list is now available. Major changes are coming in the near future, including possible hostname and/or URL changes. To be notified of such changes, subscribe to this email list.

Please visit this page for more details.


JPL Small-Body Database Browser
Search: [ help ]  
3913 Chemin (1986 XO2)
Classification: Main-belt Asteroid          SPK-ID: 2003913
Ephemeris | Orbit Diagram | Orbital Elements | Mission Design | Physical Parameters | Discovery Circumstances | Close-Approach Data ]

[ show orbit diagram ]
Orbital Elements at Epoch 2459000.5 (2020-May-31.0) TDB
Reference: JPL 31 (heliocentric ecliptic J2000)
 Element Value Uncertainty (1-sigma)   Units 
e .2238918881200335 4.1245e-08  
a 2.358907307747904 8.7116e-09 au
q 1.830767096716081 9.8755e-08 au
i 23.86790179926575 4.8915e-06 deg
node 155.7441620806349 8.7957e-06 deg
peri 44.24543884704445 1.2927e-05 deg
M 32.99205979280158 1.1e-05 deg
tp 2458879.224891874380
(2020-Jan-30.72489187)
4.014e-05 TDB
period 1323.319586573641
3.62
7.3307e-06
2.007e-08
d
yr
n .2720431282454734 1.507e-09 deg/d
Q 2.887047518779727 1.0662e-08 au
  Orbit Determination Parameters
   # obs. used (total)      1998  
   data-arc span      12116 days (33.17 yr)  
   first obs. used      1986-12-02  
   last obs. used      2020-02-03  
   planetary ephem.      DE431  
   SB-pert. ephem.      SB431-N16  
   condition code      0  
   norm. resid. RMS      .42111  
   source      ORB  
   producer      Otto Matic  
   solution date      2020-Feb-22 16:59:02  

Additional Information
 Earth MOID = .884889 au 
 Jupiter MOID = 2.19219 au 
 T_jup = 3.406 
[ show covariance matrix ]

Ephemeris | Orbit Diagram | Orbital Elements | Mission Design | Physical Parameters | Discovery Circumstances | Close-Approach Data ]

Physical Parameter Table
Parameter Symbol Value Units Sigma Reference Notes
absolute magnitude H 12.9   n/a MPO502190  
diameter diameter 6.442 km 1.369 urn:nasa:pds:neowise_diameters_albedos::2.0[mainbelt] (http://adsabs.harvard.edu/abs/2016AJ....152...63N)  
rotation period rot_per 3.4077 h n/a LCDB (Rev. 2019-August); Warner et al., 2009 Published Reference List:
[Higgins, D.; Goncalves, R.M.D. (2007) Minor Planet Bull. 34, 16-18.]
[Behrend, R. (2009) Observatoire de Geneve web site, http://obswww.unige.ch/~behrend/page_cou.html]
[Pravec, P.; Wolf, M.; Sarounova, L. (2009) http://www.asu.cas.cz/~ppravec/neo.htm]
[Chirony, V.; Galad, A.; Pravec, P. Kusnirak, P.; et al. (2011) Planet. Space Sci. 59, 1482-1489.]
[Klinglesmith III, D.A.; Hendrickx, S.; Madden, K.; Montgomery, S. (2016) Minor Planet Bull. 43, 234-239.]
geometric albedo albedo 0.322   0.171 urn:nasa:pds:neowise_diameters_albedos::2.0[mainbelt] (http://adsabs.harvard.edu/abs/2016AJ....152...63N)  

3913 Chemin (1986 XO2)          Discovered 1986-Dec-02 by at Caussols
Reference: DISCOVERY.DBLast Updated: 2003-08-29

[ show close-approach data ]
Alternate Designations
 1986 XO2 = 1969 EW1 
Ephemeris | Orbit Diagram | Orbital Elements | Mission Design | Physical Parameters | Discovery Circumstances | Close-Approach Data ]
ABOUT SSD CREDITS/AWARDS PRIVACY/COPYRIGHT GLOSSARY LINKS
FirstGov 2020-Mar-31 14:49 UT
(server date/time)  
NASA Home Page
Site Manager:   Ryan S. Park
Webmaster  Alan B. Chamberlin